This is the latest recevied weather packets stored in our database for station/object KB1FPD. If no packets are shown the sender has not sent any weather packets the latest 10 day(s).
| Time | Temp. | Humidity | Pressure | Rain* | Wind** | Luminosity | Snow |
|---|---|---|---|---|---|---|---|
| 1777661272 | 15° C | 56% | 1011.7 hPa | 0 mm | - | - | - |
| 1777660967 | 15.56° C | 56% | 1011.9 hPa | 0 mm | - | - | - |
| 1777660668 | 15.56° C | 54% | 1011.9 hPa | 0 mm | - | - | - |
| 1777660368 | 15.56° C | 55% | 1012.1 hPa | 0 mm | - | - | - |
| 1777660070 | 16.11° C | 58% | 1012.1 hPa | 0 mm | - | - | - |
| 1777659768 | 16.11° C | 55% | 1012.3 hPa | 0 mm | - | - | - |
| 1777659463 | 16.11° C | 55% | 1012.3 hPa | 0 mm | - | - | - |
| 1777659167 | 16.11° C | 57% | 1012.3 hPa | 0 mm | - | - | - |
| 1777658864 | 15.56° C | 59% | 1012.4 hPa | 0 mm | - | - | - |
| 1777658563 | 15.56° C | 62% | 1012.4 hPa | 0 mm | - | - | - |
| 1777658264 | 15.56° C | 64% | 1012.5 hPa | 0 mm | - | - | - |
| 1777657966 | 15° C | 57% | 1012.5 hPa | 0 mm | - | - | - |
| 1777657663 | 15° C | 65% | 1012.5 hPa | 0 mm | - | - | - |
| 1777657363 | 15° C | 63% | 1012.6 hPa | 0 mm | - | - | - |
| 1777657064 | 14.44° C | 64% | 1012.7 hPa | 0 mm | - | - | - |
| 1777656764 | 14.44° C | 64% | 1012.8 hPa | 0 mm | - | - | - |
| 1777656462 | 14.44° C | 61% | 1012.8 hPa | 0 mm | - | - | - |
| 1777656155 | 14.44° C | 63% | 1012.8 hPa | 0 mm | - | - | - |
| 1777655854 | 14.44° C | 63% | 1013.2 hPa | 0 mm | - | - | - |
| 1777655556 | 14.44° C | 59% | 1013.2 hPa | 0 mm | - | - | - |
| 1777655255 | 14.44° C | 57% | 1013.3 hPa | 0 mm | - | - | - |
| 1777654955 | 14.44° C | 60% | 1013.3 hPa | 0 mm | - | - | - |
| 1777654655 | 14.44° C | 68% | 1013.3 hPa | 0 mm | - | - | - |
| 1777654356 | 14.44° C | 69% | 1013.4 hPa | 0 mm | - | - | - |
| 1777654056 | 13.89° C | 63% | 1013.4 hPa | 0 mm | - | - | - |
* Rain latest hour (hover to see other rain measurements)
** Current wind speed in m/s (hover to see current wind gust speed)